[[{"header":{"parameterUnit":"m.s-1","parameterCategory":1,"la1":30.2991,"la2":30.254,"lo1":-89.0895,"lo2":-89.0444,"dy":0.0017,"dx":0.0017,"nx":28,"ny":28,"refTime":"2023-11-04T03:00:00:Z","depth":0,"parameterNumber":2,"parameterNumberName":"U-component_of_WINDS"},"data":[0,0,0,0,0,0,0,0,0,0,0,0,0,0,0,0,0,0,0,0,0,0,0,0,0,0,0,0,0,0,0,0,0,0,0,0,0,0,0,0,0,0,0,0,0,0,0,0,0,0,0,0,0,0,0,0,0,0,0.3917,0.3918,0,0.3986,0.3987,0.3988,0.402,0.402,0.402,0.402,0.4091,0.4093,0.4095,0,0,0,0,0,0,0,0,0,0,0,0,0,0.3812,0.3814,0.3917,0.3918,0.3919,0.3986,0.3987,0.3988,0.402,0.402,0.402,0.402,0.409,0.4093,0.4095,0,0,0,0,0,0,0,0,0,0,0,0,0,0.3867,0.3815,0.3917,0.3943,0.3946,0.3986,0.3987,0.3988,0.402,0.402,0.402,0.402,0.409,0.4092,0.4095,0.4114,0,0,0.4104,0.4105,0,0,0,0,0,0,0,0,0.3864,0.3871,0.3939,0.3942,0.3945,0.3995,0.3976,0.4031,0.402,0.3992,0.402,0.402,0.4059,0.4064,0.4078,0.4118,0.4121,0.4104,0.4106,0.4107,0.4108,0,0,0,0,0,0,0,0.386,0.3868,0.3945,0.3939,0.3943,0.3951,0.3959,0.3987,0.4025,0.3995,0.3997,0.4005,0.4061,0.4075,0.4079,0.4122,0.4104,0.4107,0.4109,0.411,0.418,0.418,0,0,0,0,0,0,0.3852,0.3865,0.3943,0.3947,0.3904,0.3953,0.3962,0.3979,0.4025,0.4032,0.4005,0.4006,0.407,0.4076,0.4082,0.4107,0.4107,0.411,0.4112,0.4179,0.418,0.418,0,0,0,0,0,0,0.385,0.3859,0.394,0.3907,0.3917,0.3955,0.3974,0.398,0.3994,0.4033,0.404,0.4012,0.407,0.4078,0.4106,0.411,0.4111,0.4114,0.4179,0.4179,0.418,0.4156,0,0,0,0,0,0,0.3847,0.3858,0.3866,0.3906,0.3919,0.3963,0.3974,0.3982,0.3999,0.4001,0.4041,0.4048,0.407,0.4101,0.4109,0.4114,0.4116,0.4179,0.4179,0.418,0.4157,0.4156,0.4155,0,0,0,0,0,0.3843,0.3857,0.3866,0.3875,0.393,0.3963,0.397,0.3996,0.3999,0.4007,0.4032,0.4047,0.4108,0.4104,0.4112,0.4118,0.4179,0.4179,0.418,0.4157,0.4156,0.4155,0,0,0,0,0,0,0.3817,0.3863,0.3874,0.3901,0.3928,0.3968,0.3979,0.3994,0.402,0.4021,0.4052,0.406,0.4085,0.4105,0.4099,0.4138,0.4145,0.4147,0.4125,0.4124,0.4123,0.4117,0.4119,0,0,0,0,0,0.3814,0.3837,0.3876,0.3897,0.3909,0.3942,0.3957,0.3974,0.4003,0.4015,0.4041,0.4068,0.4094,0.411,0.4135,0.416,0.4168,0.4168,0.4166,0.4165,0.4167,0.418,0.418,0.4181,0.4181,0.4181,0,0,0.3809,0.3837,0.385,0.3892,0.3915,0.3937,0.3951,0.3975,0.3992,0.4018,0.4046,0.4066,0.4098,0.4124,0.4137,0.4141,0.4168,0.4166,0.4164,0.4167,0.418,0.418,0.418,0.4181,0.4181,0.4181,0,0,0.3811,0.3835,0.3854,0.3876,0.391,0.3931,0.3935,0.3973,0.3988,0.4016,0.4036,0.4056,0.4099,0.4121,0.4138,0.4146,0.416,0.4153,0.4147,0.4159,0.4159,0.4159,0.4161,0.4162,0.4154,0.4154,0.4154,0,0.3801,0.3836,0.3862,0.3884,0.3902,0.3926,0.3945,0.3965,0.4006,0.4017,0.4021,0.4074,0.4098,0.4128,0.413,0.4143,0.4149,0.4149,0.4157,0.4157,0.4158,0.416,0.4161,0.4153,0.4153,0.4153,0.4153,0,0.382,0.3844,0.3856,0.3893,0.3912,0.3933,0.3962,0.3977,0.3992,0.4013,0.404,0.4069,0.41,0.4109,0.4124,0.4141,0.4142,0.4151,0.4158,0.4156,0.4159,0.416,0.4152,0.4152,0.4152,0.4153,0,0,0.3809,0.386,0.3864,0.388,0.3918,0.3937,0.3958,0.3988,0.4,0.4027,0.4045,0.408,0.4088,0.4107,0.4124,0.4135,0.4138,0.4143,0.4144,0.414,0.4157,0.415,0.4151,0.4148,0.4148,0.4148,0.4154,0,0.3817,0.3855,0.3879,0.3908,0.393,0.3952,0.397,0.3995,0.4014,0.4035,0.4056,0.408,0.409,0.4101,0.4112,0.4135,0.4142,0.4135,0.4164,0.4165,0.4155,0.4153,0.4146,0.415,0.4156,0.4156,0.4156,0,0.3831,0.3856,0.3887,0.3921,0.3931,0.3947,0.3975,0.3995,0.4023,0.4036,0.4056,0.4073,0.4096,0.41,0.4131,0.4125,0.4138,0.4151,0.4152,0.4156,0.416,0.4156,0.4152,0.4153,0.4158,0.4158,0.4158,0,0.3818,0.386,0.3884,0.3897,0.3938,0.3948,0.3965,0.3993,0.4009,0.4034,0.4044,0.4071,0.4086,0.4106,0.413,0.4132,0.4158,0.4165,0.4169,0.4168,0.4174,0.4173,0.4172,0.4182,0.4182,0.4182,0.4182,0,0.3824,0.3842,0.3878,0.3893,0.3913,0.394,0.3959,0.3978,0.4002,0.402,0.4041,0.4058,0.4089,0.4108,0.4127,0.4149,0.4156,0.4166,0.4171,0.4165,0.4163,0.4174,0.4174,0.4183,0.4182,0.4182,0.4182,0,0.3814,0.384,0.3867,0.3902,0.3911,0.3925,0.3955,0.3969,0.3989,0.4011,0.4018,0.4049,0.4073,0.4099,0.4133,0.4145,0.4166,0.4173,0.4156,0.4159,0.4161,0.416,0.4167,0.4168,0.4178,0.4177,0.4177,0,0.3816,0.383,0.3867,0.388,0.3897,0.3918,0.3934,0.396,0.3976,0.4008,0.4018,0.4044,0.4066,0.4104,0.4129,0.4154,0.4162,0.4162,0.4166,0.4158,0.4161,0.416,0.4161,0.4161,0.4161,0.4161,0.416,0,0.3816,0.3828,0.385,0.3876,0.3894,0.3916,0.3939,0.3949,0.3979,0.3995,0.402,0.4037,0.407,0.4095,0.4123,0.4141,0.4155,0.4159,0.4161,0.4154,0.4144,0.4149,0.4153,0.4159,0.4159,0.4159,0.4159,0.4159,0.3812,0.3825,0.3853,0.3876,0.3896,0.3916,0.3931,0.3952,0.3973,0.4002,0.4016,0.404,0.4067,0.4105,0.4122,0.4141,0.4146,0.4149,0.415,0.415,0.4148,0.4141,0.4147,0.4147,0.4147,0.4147,0.4147,0,0.3813,0.3832,0.3853,0.3884,0.3902,0.3913,0.3938,0.3953,0.3974,0.3997,0.4018,0.4046,0.407,0.4096,0.4121,0.4131,0.4139,0.4137,0.4137,0.414,0.4143,0.4139,0.4131,0.4131,0.4131,0.4131,0.4131,0.4131,0.3816,0.3838,0.3852,0.3884,0.3902,0.3926,0.3939,0.3958,0.3976,0.4006,0.4026,0.4043,0.4067,0.4094,0.4116,0.4123,0.4131,0.4127,0.4136,0.4139,0.414,0.4141,0.4137,0.4129,0.4129,0.4132,0.4132,0.4132]},{"header":{"parameterUnit":"m.s-1","parameterCategory":1,"la1":30.2991,"la2":30.254,"lo1":-89.0895,"lo2":-89.0444,"dy":0.0017,"dx":0.0017,"nx":28,"ny":28,"refTime":"2023-11-04T03:00:00:Z","depth":0,"parameterNumber":3,"parameterNumberName":"V-component_of_WINDS"},"data":[0,0,0,0,0,0,0,0,0,0,0,0,0,0,0,0,0,0,0,0,0,0,0,0,0,0,0,0,0,0,0,0,0,0,0,0,0,0,0,0,0,0,0,0,0,0,0,0,0,0,0,0,0,0,0,0,0,0,0.662,0.6619,0,0.6517,0.6516,0.6515,0.6469,0.647,0.647,0.647,0.636,0.6357,0.6354,0,0,0,0,0,0,0,0,0,0,0,0,0,0.6773,0.6771,0.662,0.6619,0.6618,0.6517,0.6516,0.6515,0.6469,0.647,0.647,0.647,0.6361,0.6358,0.6354,0,0,0,0,0,0,0,0,0,0,0,0,0,0.6692,0.677,0.6621,0.6583,0.6579,0.6518,0.6516,0.6514,0.6469,0.647,0.647,0.647,0.6363,0.6358,0.6354,0.6321,0,0,0.634,0.6338,0,0,0,0,0,0,0,0,0.6697,0.6687,0.659,0.6586,0.6581,0.6507,0.653,0.6449,0.6469,0.6511,0.647,0.647,0.6409,0.64,0.638,0.6315,0.6311,0.6339,0.6336,0.6334,0.6333,0,0,0,0,0,0,0,0.6703,0.6691,0.6579,0.6589,0.6583,0.657,0.6559,0.6514,0.6459,0.6507,0.6504,0.6492,0.6406,0.6385,0.6377,0.6309,0.6339,0.6335,0.6332,0.6331,0.6211,0.621,0,0,0,0,0,0,0.6715,0.6696,0.6583,0.6576,0.6641,0.6567,0.6555,0.653,0.646,0.645,0.6492,0.6491,0.6392,0.6383,0.6373,0.6329,0.6334,0.633,0.6327,0.6211,0.6211,0.621,0,0,0,0,0,0,0.6718,0.6705,0.6587,0.6635,0.6619,0.6564,0.6537,0.6528,0.6507,0.6449,0.6438,0.6481,0.6392,0.638,0.6334,0.6325,0.6328,0.6324,0.6212,0.6211,0.621,0.6241,0,0,0,0,0,0,0.6723,0.6707,0.6695,0.6635,0.6617,0.6551,0.6537,0.6526,0.6499,0.6496,0.6435,0.6425,0.6391,0.6341,0.633,0.6318,0.632,0.6212,0.6211,0.6211,0.6241,0.6242,0.6243,0,0,0,0,0,0.6729,0.6707,0.6694,0.6681,0.6601,0.655,0.654,0.6502,0.6499,0.6485,0.6448,0.6427,0.6328,0.6337,0.6323,0.6311,0.6213,0.6212,0.6211,0.6241,0.6242,0.6243,0,0,0,0,0,0,0.6766,0.6699,0.6684,0.6643,0.6603,0.6543,0.6525,0.6505,0.6464,0.6463,0.6417,0.6403,0.6361,0.6331,0.6343,0.6275,0.6268,0.6265,0.6296,0.6296,0.6297,0.6305,0.6316,0,0,0,0,0,0.677,0.6736,0.6678,0.6647,0.6628,0.658,0.6557,0.6532,0.6488,0.647,0.6429,0.6387,0.6345,0.6319,0.6278,0.6237,0.6222,0.6221,0.6222,0.6223,0.622,0.6195,0.6193,0.6207,0.6207,0.6207,0,0,0.6776,0.6735,0.6716,0.6654,0.662,0.6584,0.6566,0.6529,0.6502,0.6464,0.6419,0.6387,0.6336,0.6292,0.6271,0.6266,0.6213,0.6222,0.6223,0.6219,0.6193,0.6192,0.6191,0.6206,0.6206,0.6207,0,0,0.677,0.6736,0.6707,0.6673,0.6622,0.6591,0.6584,0.6526,0.6504,0.6458,0.6429,0.6395,0.6326,0.629,0.6263,0.6243,0.6222,0.6231,0.6235,0.6211,0.621,0.6209,0.62,0.6198,0.6228,0.6228,0.6229,0,0.6784,0.6731,0.6693,0.6658,0.6631,0.6596,0.6565,0.6533,0.6471,0.6453,0.6449,0.636,0.6324,0.627,0.6265,0.6245,0.6234,0.6237,0.6213,0.6212,0.621,0.6201,0.6199,0.623,0.623,0.623,0.6229,0,0.6751,0.6714,0.6696,0.6638,0.6608,0.6575,0.6531,0.6505,0.6483,0.6451,0.6404,0.6358,0.6307,0.6293,0.627,0.6236,0.6234,0.6222,0.6215,0.6211,0.6202,0.6198,0.6232,0.6231,0.6231,0.6231,0,0,0.6765,0.6687,0.6681,0.6654,0.6595,0.6565,0.653,0.6481,0.6459,0.6417,0.6385,0.6327,0.6316,0.6285,0.6258,0.6237,0.6222,0.6227,0.6225,0.6227,0.618,0.6189,0.6186,0.6208,0.6207,0.6207,0.6184,0,0.675,0.6687,0.6652,0.6602,0.6567,0.6533,0.6502,0.6462,0.6431,0.6395,0.6361,0.632,0.6308,0.6289,0.6267,0.6229,0.6212,0.623,0.6176,0.6175,0.6189,0.6181,0.619,0.6171,0.618,0.618,0.6179,0,0.6725,0.6685,0.6632,0.6577,0.656,0.6533,0.6485,0.6452,0.6405,0.6384,0.635,0.6323,0.6282,0.6279,0.6222,0.6235,0.621,0.6188,0.6187,0.6179,0.6176,0.6173,0.6164,0.6161,0.6174,0.6174,0.6175,0,0.6739,0.6672,0.6632,0.661,0.6544,0.6526,0.6497,0.645,0.6423,0.6381,0.6362,0.6315,0.6289,0.6253,0.6213,0.6214,0.6159,0.6152,0.6139,0.614,0.6128,0.6129,0.6115,0.6114,0.6114,0.6115,0.6115,0,0.6726,0.6695,0.6637,0.6612,0.6576,0.6535,0.6499,0.6468,0.6427,0.6394,0.6361,0.6331,0.6281,0.6244,0.6212,0.6169,0.6158,0.6138,0.613,0.614,0.6143,0.6123,0.6123,0.6114,0.6114,0.6114,0.6114,0,0.6736,0.6697,0.665,0.6592,0.6576,0.6552,0.6501,0.6475,0.6443,0.6401,0.6389,0.6338,0.6292,0.6249,0.6188,0.6167,0.6123,0.6113,0.6139,0.6134,0.6123,0.6124,0.6094,0.6088,0.6094,0.6094,0.6094,0,0.673,0.6705,0.6645,0.6621,0.6594,0.6556,0.6528,0.6486,0.6458,0.6402,0.6382,0.6334,0.6294,0.6222,0.6179,0.6131,0.6119,0.6112,0.6112,0.6123,0.6117,0.6119,0.6116,0.6112,0.6113,0.6113,0.6113,0,0.6723,0.6704,0.6666,0.6621,0.6588,0.655,0.6511,0.6493,0.6443,0.6413,0.6366,0.6335,0.6273,0.6225,0.6173,0.6142,0.6118,0.6114,0.6108,0.6117,0.6133,0.6123,0.614,0.6114,0.6114,0.6114,0.6114,0.6114,0.6724,0.67,0.6653,0.6611,0.6577,0.6541,0.6513,0.6477,0.6439,0.6385,0.6363,0.6316,0.6267,0.6195,0.6164,0.6125,0.612,0.6112,0.611,0.6108,0.611,0.6141,0.6116,0.6116,0.6116,0.6116,0.6116,0,0.6714,0.6683,0.6644,0.659,0.6557,0.6539,0.6494,0.6467,0.6426,0.6384,0.6345,0.6291,0.6245,0.6197,0.6148,0.6126,0.6114,0.6114,0.6115,0.6108,0.6118,0.6127,0.6125,0.6125,0.6125,0.6125,0.6125,0.6125,0.6705,0.6663,0.6639,0.658,0.6547,0.6502,0.6478,0.6443,0.6409,0.6351,0.6313,0.6283,0.6238,0.6185,0.6141,0.6128,0.611,0.6114,0.6097,0.6108,0.6107,0.6107,0.6115,0.611,0.611,0.609,0.609,0.609]}]]